[[{"header":{"parameterUnit":"m.s-1","parameterCategory":1,"la1":30.2991,"la2":30.254,"lo1":-89.0895,"lo2":-89.0444,"dy":0.0017,"dx":0.0017,"nx":28,"ny":28,"refTime":"2025-11-13T03:00:00:Z","depth":0,"parameterNumber":2,"parameterNumberName":"U-component_of_WINDS"},"data":[0,0,0,0,0,0,0,0,0,0,0,0,0,0,0,0,0,0,0,0,0,0,0,0,0,0,0,0,0,0,0,0,0,0,0,0,0,0,0,0,0,0,0,0,0,0,0,0,0,0,0,0,0,0,0,0,0,0,0.702,0.702,0,0.7056,0.7056,0.7056,0.7036,0.7035,0.7034,0.7033,0.7072,0.7074,0.7076,0,0,0,0,0,0,0,0,0,0,0,0,0,0.6934,0.6936,0.702,0.702,0.7021,0.7056,0.7056,0.7057,0.7036,0.7035,0.7033,0.7032,0.7072,0.7074,0.7076,0,0,0,0,0,0,0,0,0,0,0,0,0,0.6971,0.6936,0.702,0.7014,0.7014,0.7055,0.7056,0.7057,0.7036,0.7035,0.7033,0.7032,0.7071,0.7074,0.7077,0.7126,0,0,0.7086,0.7087,0,0,0,0,0,0,0,0,0.6969,0.6974,0.7015,0.7015,0.7015,0.704,0.704,0.708,0.7036,0.7028,0.7033,0.7031,0.7063,0.7066,0.7077,0.7128,0.713,0.7086,0.7088,0.7089,0.709,0,0,0,0,0,0,0,0.6966,0.6972,0.7034,0.7015,0.7015,0.7011,0.7014,0.7048,0.7054,0.7029,0.7027,0.7031,0.7063,0.7074,0.7077,0.713,0.7086,0.7089,0.7091,0.7092,0.7221,0.7223,0,0,0,0,0,0,0.6964,0.697,0.7033,0.7035,0.6987,0.7013,0.7017,0.7033,0.7053,0.7055,0.7033,0.703,0.7069,0.7074,0.7079,0.7136,0.7089,0.7092,0.7094,0.722,0.7222,0.7224,0,0,0,0,0,0,0.6962,0.697,0.7031,0.7002,0.701,0.7016,0.7034,0.7035,0.7046,0.7056,0.7057,0.7043,0.7068,0.7074,0.7114,0.7137,0.7093,0.7096,0.7218,0.722,0.7223,0.7252,0,0,0,0,0,0,0.696,0.6969,0.6988,0.7003,0.7011,0.7066,0.7036,0.7036,0.7051,0.7048,0.7066,0.7068,0.7068,0.7109,0.7117,0.7141,0.7098,0.7216,0.7219,0.7222,0.7249,0.7256,0.7261,0,0,0,0,0,0.6957,0.6996,0.6989,0.6996,0.7035,0.7067,0.7072,0.707,0.7053,0.7071,0.7078,0.7067,0.7134,0.7113,0.7122,0.7147,0.7214,0.7218,0.7222,0.7247,0.7254,0.7261,0,0,0,0,0,0,0.6984,0.6998,0.699,0.7035,0.705,0.7063,0.7087,0.7078,0.7099,0.7096,0.7093,0.7098,0.7138,0.7147,0.7124,0.7195,0.7171,0.7177,0.7187,0.7195,0.72,0.7197,0.7101,0,0,0,0,0,0.6996,0.702,0.7031,0.7069,0.7077,0.7081,0.7095,0.7092,0.7107,0.7114,0.7123,0.7139,0.7164,0.718,0.7203,0.725,0.7254,0.7272,0.7277,0.7282,0.7287,0.7311,0.7319,0.7236,0.7236,0.7236,0,0,0.7019,0.7029,0.7045,0.7075,0.7086,0.7111,0.7086,0.7115,0.7133,0.7119,0.7155,0.7163,0.7181,0.7224,0.7243,0.7232,0.731,0.7287,0.7291,0.7293,0.7315,0.7323,0.733,0.7238,0.7238,0.7237,0,0,0.7075,0.7086,0.7118,0.7129,0.7146,0.7148,0.7156,0.717,0.7174,0.7211,0.7199,0.7222,0.7264,0.7277,0.7289,0.7347,0.7338,0.7355,0.7385,0.7409,0.7415,0.7421,0.7441,0.7448,0.736,0.736,0.736,0,0.7103,0.714,0.7136,0.7165,0.7178,0.7164,0.7196,0.7208,0.7232,0.7241,0.7228,0.7279,0.729,0.7335,0.7349,0.736,0.7368,0.7353,0.7414,0.742,0.7426,0.7444,0.7452,0.7362,0.7362,0.7361,0.7361,0,0.7172,0.7198,0.7222,0.7244,0.726,0.729,0.7291,0.7308,0.7303,0.7306,0.7343,0.7356,0.738,0.7391,0.7388,0.7435,0.7427,0.7414,0.7391,0.7435,0.7453,0.746,0.7365,0.7364,0.7363,0.7363,0,0,0.7247,0.7265,0.7274,0.7282,0.7299,0.7319,0.7349,0.7371,0.7385,0.7402,0.7426,0.7461,0.7448,0.7462,0.746,0.7481,0.7524,0.7465,0.7465,0.7474,0.7576,0.7585,0.7593,0.7518,0.7519,0.7521,0.7574,0,0.7303,0.7353,0.735,0.7398,0.7421,0.7407,0.7433,0.7446,0.745,0.747,0.7475,0.7499,0.7481,0.7489,0.7509,0.7515,0.7544,0.7511,0.754,0.7541,0.7535,0.7602,0.7612,0.7662,0.7581,0.7582,0.7583,0,0.7375,0.7392,0.7441,0.7453,0.7462,0.7485,0.7505,0.7525,0.7539,0.754,0.7554,0.7548,0.7578,0.7554,0.7594,0.7571,0.7583,0.7587,0.7589,0.7591,0.7564,0.7605,0.7678,0.7685,0.7594,0.7593,0.7592,0,0.7422,0.7458,0.7492,0.75,0.7515,0.7531,0.7538,0.755,0.7564,0.7581,0.7589,0.7611,0.7622,0.7639,0.7638,0.7621,0.7679,0.7655,0.768,0.768,0.7692,0.7692,0.7767,0.7702,0.7702,0.7701,0.7701,0,0.7484,0.7515,0.7513,0.7534,0.7567,0.7563,0.7597,0.7602,0.7613,0.7634,0.7625,0.7645,0.7644,0.7664,0.7665,0.7697,0.7703,0.7704,0.7704,0.7705,0.7704,0.7712,0.7708,0.7703,0.7703,0.7703,0.7702,0,0.7543,0.7543,0.7579,0.7589,0.7592,0.7617,0.7625,0.7645,0.7647,0.7674,0.7681,0.7684,0.7708,0.7709,0.7737,0.7737,0.7776,0.7772,0.7771,0.777,0.7794,0.7792,0.7876,0.7887,0.7816,0.7817,0.7817,0,0.7582,0.7605,0.7617,0.763,0.7637,0.7659,0.7672,0.7669,0.7683,0.7699,0.7717,0.7739,0.7757,0.7795,0.7801,0.7821,0.7817,0.7846,0.7821,0.782,0.7816,0.7815,0.7816,0.785,0.7851,0.7852,0.7852,0,0.7651,0.7649,0.7668,0.7686,0.7701,0.7716,0.773,0.7741,0.7739,0.7756,0.7779,0.7792,0.7819,0.7842,0.7861,0.7869,0.786,0.786,0.7867,0.7868,0.7865,0.7865,0.7783,0.7858,0.7858,0.7857,0.7857,0.7857,0.77,0.7719,0.773,0.775,0.776,0.7772,0.7791,0.7794,0.7813,0.7834,0.7832,0.7857,0.787,0.7895,0.7904,0.7924,0.7914,0.7925,0.7927,0.7929,0.7931,0.7863,0.7928,0.7928,0.7928,0.7927,0.7927,0,0.7767,0.7773,0.7792,0.781,0.7826,0.7816,0.783,0.7844,0.7866,0.7878,0.7895,0.7921,0.7942,0.7949,0.7969,0.7984,0.798,0.7989,0.7987,0.7989,0.7939,0.7931,0.7991,0.7991,0.7991,0.7991,0.7991,0.7991,0.7803,0.7834,0.7834,0.7869,0.7875,0.7899,0.7908,0.7919,0.7929,0.7958,0.7975,0.7978,0.7988,0.8008,0.8027,0.8028,0.8036,0.8046,0.8046,0.7999,0.7993,0.7987,0.7979,0.8048,0.8048,0.8094,0.8094,0.8095]},{"header":{"parameterUnit":"m.s-1","parameterCategory":1,"la1":30.2991,"la2":30.254,"lo1":-89.0895,"lo2":-89.0444,"dy":0.0017,"dx":0.0017,"nx":28,"ny":28,"refTime":"2025-11-13T03:00:00:Z","depth":0,"parameterNumber":3,"parameterNumberName":"V-component_of_WINDS"},"data":[0,0,0,0,0,0,0,0,0,0,0,0,0,0,0,0,0,0,0,0,0,0,0,0,0,0,0,0,0,0,0,0,0,0,0,0,0,0,0,0,0,0,0,0,0,0,0,0,0,0,0,0,0,0,0,0,0,0,0.5657,0.5656,0,0.5542,0.554,0.5539,0.5477,0.5477,0.5477,0.5477,0.5352,0.5349,0.5346,0,0,0,0,0,0,0,0,0,0,0,0,0,0.582,0.5817,0.5658,0.5656,0.5655,0.5542,0.554,0.5539,0.5477,0.5477,0.5477,0.5477,0.5353,0.5349,0.5345,0,0,0,0,0,0,0,0,0,0,0,0,0,0.5731,0.5816,0.5658,0.561,0.5605,0.5542,0.554,0.5538,0.5477,0.5477,0.5477,0.5477,0.5354,0.535,0.5345,0.5318,0,0,0.533,0.5328,0,0,0,0,0,0,0,0,0.5736,0.5725,0.5619,0.5614,0.5607,0.5524,0.5552,0.5464,0.5477,0.5525,0.5477,0.5476,0.5409,0.54,0.5378,0.5313,0.5307,0.533,0.5327,0.5325,0.5323,0,0,0,0,0,0,0,0.5742,0.573,0.5611,0.5617,0.561,0.5593,0.558,0.5535,0.5469,0.5521,0.5516,0.5504,0.5406,0.5383,0.5375,0.5305,0.533,0.5326,0.5323,0.5321,0.5211,0.5211,0,0,0,0,0,0,0.5757,0.5735,0.5615,0.5608,0.5673,0.559,0.5576,0.5551,0.547,0.5457,0.5504,0.5501,0.5391,0.538,0.537,0.5333,0.5325,0.532,0.5318,0.5211,0.5211,0.5211,0,0,0,0,0,0,0.5761,0.5747,0.562,0.567,0.5653,0.5588,0.556,0.5548,0.5526,0.5457,0.5444,0.5493,0.5391,0.5377,0.5332,0.5328,0.5318,0.5314,0.5211,0.5211,0.5211,0.5259,0,0,0,0,0,0,0.5766,0.5749,0.5739,0.5671,0.565,0.5586,0.5559,0.5546,0.5518,0.5513,0.5443,0.5431,0.5389,0.5339,0.5327,0.5321,0.531,0.5211,0.5211,0.5211,0.5257,0.526,0.5263,0,0,0,0,0,0.5772,0.5756,0.5739,0.5725,0.5638,0.5586,0.5574,0.5527,0.5518,0.5507,0.5463,0.5434,0.533,0.5335,0.5321,0.5313,0.5211,0.5211,0.5211,0.5256,0.526,0.5263,0,0,0,0,0,0,0.5824,0.5746,0.5726,0.5689,0.5645,0.5575,0.556,0.5533,0.5489,0.5486,0.5429,0.5413,0.5373,0.5339,0.5346,0.5282,0.5267,0.5265,0.5307,0.531,0.5313,0.5321,0.5306,0,0,0,0,0,0.5832,0.5798,0.5731,0.5704,0.5683,0.5626,0.5601,0.5569,0.552,0.55,0.5453,0.5405,0.5361,0.5334,0.529,0.5252,0.5235,0.524,0.5243,0.5245,0.5243,0.5219,0.522,0.5211,0.5211,0.5211,0,0,0.5846,0.5799,0.5781,0.5713,0.5675,0.5639,0.561,0.5573,0.5546,0.5494,0.5449,0.5413,0.5355,0.5313,0.5293,0.5283,0.5242,0.5245,0.5248,0.5244,0.5219,0.522,0.5221,0.5211,0.5211,0.5211,0,0,0.5854,0.5816,0.5789,0.5752,0.5695,0.5657,0.5651,0.5586,0.556,0.5515,0.5475,0.544,0.5367,0.5327,0.5297,0.529,0.5261,0.5278,0.5292,0.527,0.527,0.5271,0.5267,0.5267,0.5276,0.5276,0.5276,0,0.5878,0.5825,0.5778,0.5744,0.5715,0.5669,0.564,0.5605,0.5537,0.5516,0.5507,0.5414,0.5372,0.532,0.5319,0.5296,0.5286,0.5285,0.5275,0.5274,0.5274,0.527,0.5269,0.5278,0.5278,0.5278,0.5277,0,0.5857,0.5821,0.5805,0.5742,0.5711,0.568,0.5627,0.56,0.5572,0.5534,0.5487,0.5435,0.538,0.5365,0.5336,0.5309,0.5304,0.5286,0.5269,0.5278,0.5273,0.5271,0.5281,0.5281,0.528,0.5279,0,0,0.5894,0.5806,0.5801,0.5772,0.5706,0.5676,0.5642,0.5589,0.5567,0.5521,0.549,0.5429,0.5412,0.5378,0.5343,0.5324,0.532,0.5307,0.5305,0.5311,0.5286,0.5299,0.5299,0.5301,0.5301,0.53,0.529,0,0.5892,0.5831,0.5788,0.5742,0.5707,0.5663,0.5633,0.5588,0.5552,0.5515,0.5474,0.5432,0.5412,0.5392,0.537,0.5326,0.5314,0.5326,0.5269,0.5268,0.5285,0.5296,0.531,0.5303,0.5288,0.5288,0.5287,0,0.5881,0.5838,0.579,0.5728,0.5711,0.5686,0.5634,0.56,0.5547,0.5522,0.5485,0.545,0.541,0.5399,0.5342,0.535,0.5325,0.5299,0.5298,0.529,0.5278,0.5287,0.53,0.5299,0.5284,0.5284,0.5285,0,0.5912,0.5842,0.5804,0.578,0.5707,0.5689,0.5657,0.5605,0.5576,0.5531,0.5511,0.5461,0.5433,0.5393,0.5345,0.5341,0.5292,0.5277,0.5269,0.527,0.526,0.5261,0.5267,0.5245,0.5245,0.5245,0.5245,0,0.5913,0.5885,0.5817,0.5793,0.576,0.571,0.5677,0.5642,0.5596,0.5563,0.5521,0.5491,0.5429,0.5391,0.5353,0.5311,0.5298,0.5276,0.5266,0.5279,0.5282,0.526,0.5259,0.5245,0.5245,0.5245,0.5245,0,0.5941,0.5894,0.585,0.5785,0.5767,0.5746,0.5688,0.5663,0.5625,0.5584,0.5571,0.5511,0.5464,0.5412,0.5347,0.5321,0.5281,0.5267,0.5299,0.5293,0.5287,0.5288,0.528,0.5275,0.5258,0.5258,0.5258,0,0.5944,0.5922,0.5855,0.5831,0.5801,0.5762,0.5733,0.5683,0.5654,0.5593,0.5574,0.5524,0.5481,0.5407,0.5356,0.5306,0.529,0.529,0.5282,0.5296,0.5288,0.529,0.5287,0.5293,0.5293,0.5294,0.5294,0,0.5955,0.5933,0.5894,0.5846,0.5813,0.5773,0.573,0.5713,0.5654,0.5623,0.5575,0.5542,0.5476,0.5426,0.537,0.5335,0.5304,0.5297,0.5292,0.5305,0.5324,0.5313,0.5305,0.5297,0.5297,0.5297,0.5296,0.5296,0.5969,0.5947,0.5897,0.5854,0.5817,0.5779,0.5752,0.5711,0.5671,0.5615,0.5587,0.5539,0.5486,0.5407,0.5373,0.5333,0.5324,0.5317,0.5315,0.5314,0.5317,0.5332,0.5323,0.5323,0.5323,0.5323,0.5322,0,0.5977,0.5943,0.5904,0.5847,0.5813,0.579,0.5741,0.5714,0.5673,0.5627,0.5587,0.5531,0.5482,0.5428,0.5376,0.5354,0.5339,0.5342,0.5342,0.5335,0.5329,0.5338,0.5356,0.5356,0.5356,0.5356,0.5356,0.5356,0.5977,0.5938,0.591,0.5852,0.5817,0.5771,0.5746,0.5709,0.5672,0.5613,0.5573,0.5539,0.5489,0.5433,0.5387,0.5372,0.5354,0.5361,0.5342,0.5338,0.5335,0.5332,0.5341,0.5358,0.5358,0.535,0.535,0.535]}]]